Powrót do katalogu

SL-16 DEB

AktywnyLEO
NORAD 22406·DEBRIS·🇷🇺 Russia

Wystrzelony Dec 25, 1992 z Baikonur Cosmodrome

Loading…

Następne Przeloty (najbliższe 24 godziny)

TLE

ŚwieżeSource: Space-Track

Epoka: Sep 14, 2026, 06:38 UTC

1 22406U 92093CX  26257.27667602  .00000170  00000-0  17313-3 0  9991
2 22406  70.7569   0.0374 0171110 148.8891 242.1651 13.83788263696128

Śledź SL-16 DEB w czasie rzeczywistym z AllMySat

Download on the App Store